星链-34732 (STARLINK-34732)

导读

STARLINK-34732是美国太空探索技术公司SpaceX星链星座的组网卫星,于2025年7月26日发射入轨,归属星链互联网星座项目,该卫星旨在为全球范围提供低延迟、高速率的卫星宽带互联网服务,覆盖偏远地区、海上与航空等传统网络难以覆盖的场景,是星链大规模低轨星座建设中的组成单元。

基本信息
目录编号:
64955
目录名称:
STARLINK-34732
国际标识:
2025-158Z
轨道中心:
EARTH
卫星名称:
星链-34732
卫星全名:
星链-34732 (STARLINK-34732)
卫星状态:
在轨 (已飞行406 天)
发射日期:
2025-07-26 UTC
国别 :
美国 (US)
星等 :
--
轨道信息
数据来源 国际轨道数据
星历时间: 2026-09-05T14:00:02+0800
7小时前
查看轨道信息
半长轴: 6912.567km
偏心率: 0.0001598
轨道倾角: 97.285°
近地点辐角 100.234°
升交点赤经 106.883°
平近点角 355.268°
近地点: 533.325km
远地点: 535.535km
周期: 95.328分钟
每日圈数: 15.105801
详细信息
固有亮度:
5
最大亮度:
2.5
卫星平台:
Starlink V1.0
覆盖范围:
全球
运营商:
太空探索技术公司
运营商所在国:
美国
制造商(研发单位):
太空探索技术公司
制造商所在国:
美国
使用方式:
暂无
卫星简介
Starlink 计划是 SpaceX 推出的全球卫星互联网项目,通过发射低轨道卫星,为全球尤其是偏远地区提供高速、低延迟的互联网服务。自 2019 年起,Starlink 已部署数千颗卫星,旨在缩小全球数字鸿沟,推动互联网普及。该项目还为军事、航空等行业提供通信支持,带来广泛经济效益。
2D轨道图
3D轨道图
轨道高度分析图
轨道倾角分析图
轨道综合分析图
查看轨道综合分析图
交会数据列表
事件ID 空间交会对象 最接近时刻(TCA) 交会距离 交会风险概率(CRP) 交会风险指数(CRI) 操作
CDM_260906-170605-405206-495521
2026-09-06T
17:06:47+0000
2.929 km
极远距离
1.223265E-6 低风险 0.37
CDM_260906-003804-860706-495521
2026-09-06T
00:38:21+0000
2.758 km
极远距离
8.729784E-7 极低风险 0.34